When you browse on this site, cookies collect data to enhance your experience and personalize the content and advertising you see.
Visit our Privacy Policy to learn more. By continuing to use the site, you agree to this use of cookies and data.
  • In Romania
  • List of Countries
  • For 7 days
  • Water Temperature
  • Weather Map
  • Weather Widgets
  • user-avatar
    Login

    Hourly Weather Zaragoza

    Today, 14 November, Thursday

    Time Temperature Precipitation Wind Pressure Humidity
    00:00 +11°C° 0 mm 4 mps 736 mmHg 70%
    01:00 +11°C° 0 mm 4 mps 735 mmHg 69%
    02:00 +11°C° 0 mm 3 mps 734 mmHg 69%
    03:00 +11°C° 0 mm 3 mps 733 mmHg 68%
    04:00 +11°C° 0.1 mm 4 mps 733 mmHg 69%
    05:00 +10°C° 0.1 mm 5 mps 732 mmHg 70%
    06:00 +10°C° 0.1 mm 6 mps 732 mmHg 71%
    07:00 +9°C° 0.6 mm 7 mps 732 mmHg 70%
    08:00 +7°C° 0.6 mm 8 mps 732 mmHg 69%
    09:00 +6°C° 0.6 mm 9 mps 732 mmHg 69%
    10:00 +6°C° 0.1 mm 8 mps 732 mmHg 64%
    11:00 +7°C° 0.1 mm 8 mps 732 mmHg 59%
    12:00 +9°C° 0.1 mm 7 mps 732 mmHg 55%
    13:00 +9°C° 0 mm 6 mps 731 mmHg 51%
    14:00 +10°C° 0 mm 6 mps 730 mmHg 48%
    15:00 +10°C° 0 mm 5 mps 729 mmHg 45%
    16:00 +9°C° 0 mm 5 mps 729 mmHg 49%
    17:00 +8°C° 0 mm 4 mps 730 mmHg 53%
    18:00 +9°C° 0 mm 3 mps 730 mmHg 58%
    19:00 +7°C° 0.1 mm 4 mps 730 mmHg 63%
    20:00 +7°C° 0.1 mm 4 mps 730 mmHg 68%
    21:00 +6°C° 0.1 mm 5 mps 730 mmHg 73%
    22:00 +6°C° 0 mm 4 mps 731 mmHg 74%
    23:00 +5°C° 0 mm 3 mps 731 mmHg 75%

    Tomorrow, 15 November, Friday

    Time Temperature Precipitation Wind Pressure Humidity
    00:00 +5°C° 0 mm 3 mps 731 mmHg 76%
    01:00 +5°C° 0 mm 4 mps 732 mmHg 73%
    02:00 +5°C° 0 mm 5 mps 732 mmHg 69%
    03:00 +5°C° 0 mm 5 mps 732 mmHg 66%
    04:00 +4°C° 0.1 mm 6 mps 732 mmHg 67%
    05:00 +4°C° 0.1 mm 6 mps 732 mmHg 67%
    06:00 +4°C° 0.1 mm 7 mps 732 mmHg 68%
    07:00 +4°C° 0 mm 7 mps 732 mmHg 68%
    08:00 +5°C° 0 mm 6 mps 732 mmHg 68%
    09:00 +5°C° 0 mm 6 mps 733 mmHg 69%
    10:00 +5°C° 0.1 mm 6 mps 733 mmHg 70%
    11:00 +6°C° 0.1 mm 7 mps 732 mmHg 71%
    12:00 +6°C° 0.1 mm 7 mps 732 mmHg 73%
    13:00 +8°C° 0.1 mm 7 mps 732 mmHg 68%
    14:00 +8°C° 0.1 mm 6 mps 732 mmHg 64%
    15:00 +9°C° 0.1 mm 6 mps 732 mmHg 59%
    16:00 +8°C° 0.4 mm 6 mps 732 mmHg 67%
    17:00 +6°C° 0.4 mm 7 mps 733 mmHg 74%
    18:00 +5°C° 0.4 mm 7 mps 734 mmHg 82%
    19:00 +5°C° 0.1 mm 7 mps 734 mmHg 81%
    20:00 +5°C° 0.1 mm 7 mps 735 mmHg 80%
    21:00 +5°C° 0.1 mm 7 mps 736 mmHg 79%
    22:00 +4°C° 0 mm 7 mps 736 mmHg 79%
    23:00 +4°C° 0 mm 7 mps 737 mmHg 80%

    Day after tomorrow, 16 November, Saturday

    Time Temperature Precipitation Wind Pressure Humidity
    00:00 +4°C° 0 mm 7 mps 737 mmHg 80%
    01:00 +3°C° 0 mm 6 mps 738 mmHg 80%
    02:00 +3°C° 0 mm 6 mps 738 mmHg 79%
    03:00 +3°C° 0 mm 5 mps 738 mmHg 79%
    04:00 +3°C° 0 mm 5 mps 738 mmHg 79%
    05:00 +3°C° 0 mm 4 mps 739 mmHg 79%
    06:00 +3°C° 0 mm 4 mps 739 mmHg 79%
    07:00 +4°C° 0 mm 4 mps 739 mmHg 77%
    08:00 +4°C° 0 mm 4 mps 740 mmHg 76%
    09:00 +5°C° 0 mm 4 mps 740 mmHg 74%
    10:00 +6°C° 0 mm 4 mps 740 mmHg 68%
    11:00 +7°C° 0 mm 4 mps 740 mmHg 63%
    12:00 +8°C° 0 mm 4 mps 740 mmHg 57%
    13:00 +8°C° 0 mm 4 mps 740 mmHg 60%
    14:00 +8°C° 0 mm 5 mps 739 mmHg 63%
    15:00 +8°C° 0 mm 6 mps 739 mmHg 66%
    16:00 +7°C° 0.1 mm 5 mps 740 mmHg 71%
    17:00 +6°C° 0.1 mm 5 mps 740 mmHg 77%
    18:00 +6°C° 0.1 mm 4 mps 740 mmHg 82%
    19:00 +6°C° 0 mm 4 mps 741 mmHg 83%
    20:00 +5°C° 0 mm 4 mps 741 mmHg 84%
    21:00 +5°C° 0 mm 5 mps 741 mmHg 85%
    22:00 +5°C° 0 mm 5 mps 741 mmHg 84%
    23:00 +4°C° 0 mm 6 mps 741 mmHg 83%

    17 November, Sunday

    Time Temperature Precipitation Wind Pressure Humidity
    00:00 +4°C° 0 mm 6 mps 741 mmHg 82%
    01:00 +4°C° 0 mm 7 mps 741 mmHg 83%
    02:00 +4°C° 0 mm 7 mps 740 mmHg 83%
    03:00 +4°C° 0 mm 7 mps 740 mmHg 84%
    04:00 +4°C° 0 mm 7 mps 740 mmHg 84%
    05:00 +4°C° 0 mm 7 mps 740 mmHg 84%
    06:00 +4°C° 0 mm 7 mps 740 mmHg 85%
    07:00 +5°C° 0 mm 7 mps 740 mmHg 80%
    08:00 +6°C° 0 mm 7 mps 740 mmHg 76%
    09:00 +6°C° 0 mm 8 mps 740 mmHg 71%
    10:00 +7°C° 0 mm 8 mps 739 mmHg 67%
    11:00 +9°C° 0 mm 8 mps 739 mmHg 63%
    12:00 +10°C° 0 mm 8 mps 739 mmHg 59%
    13:00 +10°C° 0 mm 8 mps 738 mmHg 57%
    14:00 +10°C° 0 mm 8 mps 738 mmHg 56%
    15:00 +10°C° 0 mm 9 mps 738 mmHg 54%
    16:00 +9°C° 0 mm 8 mps 738 mmHg 60%
    17:00 +7°C° 0 mm 8 mps 738 mmHg 66%
    18:00 +6°C° 0 mm 7 mps 738 mmHg 72%
    19:00 +6°C° 0 mm 7 mps 739 mmHg 74%
    20:00 +6°C° 0 mm 7 mps 739 mmHg 76%
    21:00 +6°C° 0 mm 7 mps 739 mmHg 78%
    22:00 +6°C° 0 mm 7 mps 739 mmHg 78%
    23:00 +6°C° 0 mm 7 mps 739 mmHg 79%

    18 November, Monday

    Time Temperature Precipitation Wind Pressure Humidity
    00:00 +6°C° 0 mm 7 mps 739 mmHg 79%
    01:00 +6°C° 0 mm 7 mps 739 mmHg 79%
    02:00 +6°C° 0 mm 7 mps 739 mmHg 79%
    03:00 +6°C° 0 mm 7 mps 738 mmHg 79%
    04:00 +6°C° 0 mm 7 mps 739 mmHg 79%
    05:00 +6°C° 0 mm 7 mps 739 mmHg 79%
    06:00 +6°C° 0 mm 7 mps 739 mmHg 79%
    07:00 +6°C° 0.1 mm 8 mps 740 mmHg 80%
    08:00 +6°C° 0.1 mm 9 mps 740 mmHg 80%
    09:00 +6°C° 0.1 mm 10 mps 740 mmHg 81%
    10:00 +7°C° 0 mm 10 mps 741 mmHg 76%
    11:00 +8°C° 0 mm 11 mps 741 mmHg 70%
    12:00 +8°C° 0 mm 12 mps 741 mmHg 65%
    13:00 +8°C° 0 mm 11 mps 741 mmHg 63%
    14:00 +9°C° 0 mm 11 mps 741 mmHg 61%
    15:00 +9°C° 0 mm 11 mps 741 mmHg 59%
    16:00 +8°C° 0 mm 10 mps 742 mmHg 63%
    17:00 +7°C° 0 mm 9 mps 742 mmHg 67%
    18:00 +6°C° 0 mm 8 mps 743 mmHg 71%
    19:00 +6°C° 0 mm 7 mps 743 mmHg 73%
    20:00 +6°C° 0 mm 7 mps 744 mmHg 74%
    21:00 +5°C° 0 mm 7 mps 744 mmHg 76%
    22:00 +5°C° 0 mm 6 mps 744 mmHg 75%
    23:00 +6°C° 0 mm 5 mps 745 mmHg 75%

    19 November, Tuesday

    Time Temperature Precipitation Wind Pressure Humidity
    00:00 +6°C° 0 mm 4 mps 745 mmHg 74%
    01:00 +5°C° 0 mm 4 mps 744 mmHg 74%
    02:00 +5°C° 0 mm 3 mps 744 mmHg 75%
    03:00 +4°C° 0 mm 3 mps 744 mmHg 75%
    04:00 +4°C° 0 mm 3 mps 744 mmHg 74%
    05:00 +5°C° 0 mm 2 mps 744 mmHg 73%
    06:00 +5°C° 0 mm 2 mps 744 mmHg 72%
    07:00 +6°C° 0 mm 2 mps 744 mmHg 68%
    08:00 +7°C° 0 mm 3 mps 744 mmHg 64%
    09:00 +7°C° 0 mm 3 mps 744 mmHg 60%
    10:00 +9°C° 0 mm 3 mps 744 mmHg 55%
    11:00 +10°C° 0 mm 3 mps 743 mmHg 51%
    12:00 +11°C° 0 mm 3 mps 743 mmHg 47%
    13:00 +11°C° 0 mm 3 mps 743 mmHg 46%
    14:00 +12°C° 0 mm 3 mps 742 mmHg 46%
    15:00 +12°C° 0 mm 3 mps 742 mmHg 46%
    16:00 +11°C° 0 mm 3 mps 742 mmHg 51%
    17:00 +10°C° 0 mm 3 mps 742 mmHg 56%
    18:00 +9°C° 0 mm 3 mps 742 mmHg 61%
    19:00 +9°C° 0 mm 3 mps 742 mmHg 61%
    20:00 +9°C° 0 mm 3 mps 742 mmHg 62%
    21:00 +8°C° 0 mm 3 mps 742 mmHg 62%
    22:00 +8°C° 0 mm 3 mps 742 mmHg 62%
    23:00 +9°C° 0 mm 3 mps 742 mmHg 63%
    Show more